GW1540 Weather Reports


time (UTC)temp
C
wind
direction
speed
KPH
gust
KPH
rain 1hr
cm
rain 24hr
cm
rain mn
cm
humidity
%
barometer
mb
20260831151543 25 265 1.6 11.3 0.00 0.00 0.00 59 1015.4
20260831144544 25 57 0.0 8.0 0.00 0.00 0.00 62 1015.6
20260831141559 25 271 6.4 16.1 0.00 0.00 0.00 64 1015.5
20260831140041 25 188 1.6 9.7 0.00 0.00 0.00 63 1015.4
20260831133055 24 219 4.8 24.1 0.00 0.00 0.00 64 1015.6
20260831130042 25 141 6.4 20.9 0.00 0.00 0.00 64 1015.8
20260831123827 23 221 0.0 14.5 0.00 0.00 0.00 63 1015.9
20260831101547 24 302 4.8 8.0 0.00 0.00 0.00 59 1016.3
20260831100042 23 310 1.6 6.4 0.00 0.00 0.00 59 1016.4
20260831093055 23 171 1.6 8.0 0.00 0.00 0.00 59 1016.5
20260831091537 22 78 0.0 9.7 0.00 0.00 0.00 65 1016.6
20260831084614 22 54 0.0 6.4 0.00 0.00 0.00 71 1016.4
20260831083056 21 99 0.0 4.8 0.00 0.00 0.00 77 1016.3
20260831081548 20 194 1.6 3.2 0.00 0.00 0.00 77 1016.3
20260831074545 18 202 0.0 3.2 0.00 0.00 0.00 87 1016.4
20260831071612 16 202 0.0 3.2 0.00 0.00 0.00 96 1016.4
20260831064612 13 202 0.0 3.2 0.00 0.00 0.00 96 1016.3
20260831063038 12 202 0.0 3.2 0.00 0.00 0.00 96 1016.6
20260831060053 10 202 0.0 0.0 0.00 0.00 0.00 95 1016.4
20260831053106 8 202 0.0 0.0 0.00 0.00 0.00 95 1016.4
20260831050041 8 202 0.0 0.0 0.00 0.00 0.00 95 1016.3
20260831044539 8 202 0.0 0.0 0.00 0.00 0.00 94 1016.2
20260831041629 8 202 0.0 0.0 0.00 0.00 0.00 94 1016.3
20260831034612 8 202 0.0 0.0 0.00 0.00 0.00 94 1016.4
20260831033053 8 202 0.0 0.0 0.00 0.00 0.00 94 1016.4
20260831030056 8 202 0.0 0.0 0.00 0.00 0.00 94 1016.7
20260831023103 8 202 0.0 0.0 0.00 0.00 0.00 94 1016.9
20260831021601 8 202 0.0 0.0 0.00 0.00 0.00 94 1016.8
20260831014604 8 202 0.0 0.0 0.00 0.00 0.00 93 1016.9
20260831011601 8 202 0.0 0.0 0.00 0.00 0.00 93 1016.8
20260831010101 8 202 0.0 0.0 0.00 0.00 0.00 93 1017.0
20260831004530 8 202 0.0 0.0 0.00 0.00 0.00 93 1017.0
20260831001557 9 202 0.0 0.0 0.00 0.00 0.00 93 1017.1
20260830234626 9 202 0.0 0.0 0.00 0.00 0.00 93 1017.1
20260830233057 10 202 0.0 0.0 0.00 0.00 0.00 92 1017.1
20260830231556 10 202 0.0 0.0 0.00 0.00 0.00 93 1017.1
20260830224556 10 202 0.0 0.0 0.00 0.00 0.00 92 1017.2
20260830223040 10 202 0.0 0.0 0.00 0.00 0.00 92 1017.3
20260830220159 11 202 0.0 0.0 0.00 0.00 0.00 92 1017.2
20260830214551 11 202 0.0 0.0 0.00 0.00 0.00 92 1017.2
20260830213043 11 202 0.0 0.0 0.00 0.00 0.00 92 1017.2
20260830210054 12 202 0.0 0.0 0.00 0.00 0.00 91 1017.0
20260830204549 12 202 0.0 0.0 0.00 0.00 0.00 91 1017.1
20260830203036 12 202 0.0 0.0 0.00 0.00 0.00 90 1017.0
20260830200052 13 202 0.0 0.0 0.00 0.00 0.00 89 1016.8
20260830193107 14 202 0.0 0.0 0.00 0.00 0.00 87 1016.6
20260830190050 15 202 0.0 0.0 0.00 0.00 0.00 85 1016.7
20260830183051 16 202 0.0 3.2 0.00 0.00 0.00 85 1016.4
20260830181544 16 202 0.0 3.2 0.00 0.00 0.00 85 1016.4
20260830174544 17 202 0.0 3.2 0.00 0.00 0.00 82 1016.0
20260830171549 18 202 1.6 4.8 0.00 0.00 0.00 80 1015.9
20260830164545 20 202 3.2 4.8 0.00 0.00 0.00 73 1015.8
20260830161555 22 238 1.6 4.8 0.00 0.00 0.00 64 1015.9
20260830154606 23 102 1.6 11.3 0.00 0.00 0.00 58 1015.8